Wind_Speed
11 9 4 1 1 1 3 4 1 10 9 2 13 4 5 3 2 0 8 15 27 26 23 24 23 22 20 20 19 19 18 17 16 16 15 13 11 9 6 5 3 3 4 4 5 6 7 7 6
11 6 3 1 2 6 4 2 7 7 4 8 10 5 3 3 3 8 15 20 27 26 25 24 24 22 20 20 20 19 18 17 15 15 13 11 10 8 6 4 3 1 1 2 2 2 2 3 4
11 3 1 2 2 6 5 3 8 5 7 12 5 5 2 2 3 18 9 27 26 25 24 24 26 24 20 19 19 18 17 16 14 12 11 9 8 7 6 6 5 3 1 2 2 1 2 2 1
3 1 2 2 7 3 2 6 9 10 5 4 7 6 4 5 9 10 24 27 26 23 23 23 25 22 20 18 18 17 17 16 13 12 11 10 8 7 6 5 5 5 4 3 4 4 4 5 4
1 1 2 1 3 2 2 7 12 7 4 5 2 4 5 4 6 18 26 25 25 22 21 21 23 22 20 19 18 17 15 14 12 12 10 9 8 7 7 7 6 6 5 5 5 6 6 6 6
1 1 1 4 4 4 6 11 9 2 4 6 7 7 4 8 17 23 24 23 22 21 20 20 21 22 21 19 18 16 14 13 12 11 10 9 9 8 8 8 8 7 7 7 8 7 7 7 7
3 1 3 3 4 5 5 10 5 6 7 4 11 5 4 8 17 21 21 19 20 20 20 19 18 18 18 18 17 16 15 14 13 12 11 10 9 9 9 9 9 10 9 10 9 9 8 8 7
1 1 4 7 4 4 8 9 7 7 3 12 5 4 7 13 19 19 18 17 17 18 19 18 17 17 16 16 17 16 15 14 13 12 12 11 10 10 10 11 10 12 12 11 10 9 8 9 7
2 2 4 4 5 5 8 4 5 5 12 3 2 4 10 26 22 20 19 17 16 16 17 18 18 18 18 17 16 16 15 14 13 13 13 12 10 10 10 11 12 11 11 10 9 10 9 9 9
1 2 1 1 3 5 6 5 7 4 10 4 7 13 25 26 24 22 22 21 20 20 19 18 19 19 17 16 15 15 15 14 14 14 13 12 12 11 10 11 11 9 10 10 9 11 11 9 9
2 2 1 1 6 6 4 5 4 6 6 6 10 18 21 24 21 21 23 24 25 21 19 21 20 19 18 17 15 15 15 14 14 15 14 13 12 11 10 9 8 7 9 8 8 9 9 8 9
3 3 2 1 5 4 8 10 4 1 4 4 18 22 19 19 19 21 20 20 21 22 21 20 21 21 21 18 17 16 15 15 14 14 14 14 13 12 11 10 9 8 8 9 10 10 10 9 9
1 2 3 5 2 6 11 7 6 4 9 15 18 19 18 17 19 20 20 18 17 20 21 21 20 21 20 19 17 16 16 16 15 15 15 15 14 13 11 11 10 10 9 10 11 12 12 12 10
2 5 8 3 5 5 8 6 3 4 11 16 17 16 16 16 19 17 16 17 19 18 21 20 21 21 20 20 20 19 18 18 17 16 16 17 16 14 13 13 13 12 11 11 12 12 12 13 12
1 1 3 7 2 4 7 4 3 13 13 15 13 14 14 15 16 19 21 21 22 22 18 21 20 21 23 24 23 21 19 18 18 17 17 19 18 18 17 14 14 14 13 14 13 13 13 13 13
1 2 1 2 1 2 1 2 6 14 14 14 13 13 13 15 21 21 21 23 20 20 22 21 21 21 23 24 24 22 21 19 18 17 16 19 20 21 17 16 16 16 14 13 14 15 16 14 14
4 3 2 1 1 3 2 1 5 12 12 12 13 13 13 14 17 21 23 23 22 22 22 23 23 24 24 27 25 24 23 21 20 18 18 19 20 20 20 17 17 18 16 16 15 16 16 18 18
3 3 1 1 2 3 4 5 6 13 13 13 13 14 13 14 18 24 25 26 24 23 23 24 25 27 27 24 23 20 20 21 21 21 21 21 21 23 22 20 21 19 17 17 17 16 16 17 18
6 1 1 3 4 3 7 7 5 13 13 13 13 14 16 17 20 21 24 25 24 24 24 24 24 31 26 22 20 21 22 22 22 22 23 24 23 20 20 20 20 19 19 20 20 19 19 19 18
1 2 3 3 4 8 2 2 3 11 14 15 14 15 16 17 16 20 22 24 26 29 28 26 31 28 29 24 24 20 16 19 21 19 22 29 30 29 26 25 21 21 21 22 23 20 21 20 18
3 5 4 2 4 1 2 2 3 5 10 8 14 14 16 17 17 17 20 24 25 26 26 29 34 33 31 31 21 17 18 16 17 22 24 27 31 32 34 32 29 27 27 24 22 21 20 23 22
3 6 3 7 6 1 4 2 3 5 6 11 13 14 17 18 18 18 19 21 22 26 23 25 32 32 30 28 26 28 25 24 28 26 23 26 27 29 33 37 37 33 24 25 21 20 21 21 24
2 1 9 5 4 2 2 3 2 0 7 12 11 14 16 17 18 19 20 23 23 21 23 24 27 29 31 29 31 26 26 27 26 23 22 23 25 28 27 30 33 34 25 23 24 25 25 25 26
10 6 8 5 2 2 1 3 2 3 5 6 11 13 15 14 16 17 21 17 20 17 20 20 26 31 26 28 32 35 33 29 26 23 24 22 21 24 27 28 29 28 30 32 27 30 29 29 27
8 5 2 3 3 1 4 4 2 5 8 11 12 8 9 8 11 12 11 10 12 12 13 15 18 26 30 30 31 36 39 32 30 30 28 27 25 25 33 32 29 31 30 23 18 14 26 33 29
11 4 3 1 0 3 3 4 2 3 7 5 3 7 6 6 3 2 1 5 8 9 9 11 15 20 22 24 33 33 34 30 31 31 32 30 29 28 30 36 33 29 24 25 22 20 20 35 32
4 3 3 5 2 3 0 2 6 1 9 12 11 12 14 13 13 12 13 15 15 13 10 6 3 6 9 13 21 27 31 32 31 30 28 28 27 32 32 34 35 36 33 34 27 26 26 26 28
3 8 3 1 4 3 2 4 2 3 10 9 11 13 13 15 16 15 16 20 20 18 17 18 15 12 9 6 6 11 17 22 24 22 22 22 26 31 33 36 32 33 33 34 28 26 27 20 28
4 4 5 4 2 2 3 3 1 7 5 3 7 10 12 13 13 14 15 18 18 19 20 18 18 16 16 14 13 11 9 7 8 11 15 19 22 24 28 31 31 31 30 30 25 26 26 24 23
1 3 5 3 4 1 2 1 3 1 5 7 7 8 11 13 13 13 15 18 19 19 18 17 14 12 12 10 9 7 5 3 7 15 18 20 25 25 26 25 26 25 24 25 24 26 26 27 33
Wind_Direction
142 136 131 69 150 31 55 70 76 117 147 184 151 195 193 62 164 337 146 158 146 150 155 155 154 151 151 150 150 147 150 152 154 154 155 152 155 156 164 153 146 118 101 102 109 114 123 128 128
146 130 45 112 50 72 55 58 124 129 114 136 141 117 119 114 84 125 139 155 150 147 158 159 157 157 158 154 154 157 157 158 157 157 162 163 168 176 183 185 185 220 86 78 97 102 110 132 153
144 56 5 47 79 62 83 101 126 121 130 145 142 54 45 40 63 147 150 153 148 151 160 164 162 164 163 159 157 160 163 162 162 164 169 169 177 182 193 192 187 211 206 340 343 339 339 317 283
148 86 106 28 69 82 84 133 135 138 131 121 119 82 81 340 145 154 151 152 151 155 161 166 169 167 166 164 161 165 166 166 169 175 177 175 183 188 187 193 208 204 220 243 267 284 298 298 290
133 338 26 61 43 63 99 130 141 143 117 112 122 97 83 27 123 144 151 156 156 157 158 165 171 169 170 172 171 175 176 177 180 186 193 201 213 216 216 220 220 230 242 241 254 275 285 287 295
140 330 16 46 65 73 113 141 149 114 143 134 110 113 99 126 138 149 155 159 160 158 159 169 176 174 176 179 181 184 187 189 189 199 212 223 227 232 228 235 240 239 249 260 266 265 270 269 277
273 187 29 4 77 117 143 159 179 141 149 148 134 104 105 150 150 152 157 159 162 164 165 173 180 181 182 187 191 194 196 201 205 215 222 230 235 237 242 250 256 264 266 265 267 272 268 268 267
207 269 26 33 22 64 141 164 153 156 101 127 153 147 160 168 155 151 156 160 165 171 175 178 183 188 192 199 201 204 208 213 220 225 232 237 243 246 252 257 266 265 269 272 271 267 262 264 258
215 93 53 27 20 343 160 154 148 97 138 111 83 123 131 146 151 152 157 164 170 179 185 189 191 193 198 200 209 214 217 220 226 232 238 244 248 252 255 258 258 270 265 266 266 267 263 262 261
49 88 72 322 344 321 216 174 145 140 151 112 87 100 132 145 156 161 169 175 183 187 192 197 200 204 204 207 211 215 219 222 227 231 235 240 247 249 246 257 261 264 265 264 259 252 257 259 258
111 135 168 47 329 322 194 143 122 147 203 187 161 145 146 152 165 173 181 186 190 192 196 200 202 205 206 209 214 218 222 225 231 233 235 241 247 250 251 251 258 255 265 261 264 264 252 257 252
162 211 189 270 316 301 161 133 92 236 346 151 149 151 151 161 172 181 185 189 193 198 203 204 205 208 211 214 218 221 223 226 229 234 237 242 248 249 249 249 252 258 257 264 270 268 269 263 271
261 292 276 322 348 90 128 115 124 53 96 121 137 151 159 165 178 188 194 195 197 205 208 210 210 212 213 217 222 224 226 231 235 237 237 236 242 246 247 252 255 258 262 268 270 275 279 280 277
274 298 317 346 85 101 123 116 144 116 130 131 148 161 167 174 184 187 198 203 208 211 212 211 215 216 217 220 224 226 229 232 235 237 239 240 241 244 245 254 259 261 264 267 275 276 278 284 283
253 308 40 43 67 104 129 136 68 145 149 149 160 169 180 193 192 203 204 209 212 216 215 216 217 217 220 224 229 230 231 233 234 237 238 238 238 243 242 252 258 261 269 277 275 277 277 275 279
47 48 67 8 332 79 299 327 119 160 160 158 170 181 193 200 207 214 218 222 221 221 220 218 219 220 223 224 227 229 231 231 234 234 236 238 238 242 245 246 252 258 265 272 279 279 275 274 276
22 114 43 358 252 134 219 297 143 171 181 172 179 192 202 212 223 229 230 231 228 228 225 222 221 222 224 228 225 228 230 232 234 235 237 243 245 245 247 248 252 255 257 261 265 277 274 271 277
122 119 150 283 91 216 182 233 169 182 191 198 191 198 206 216 225 227 232 234 234 232 230 229 226 227 229 229 231 235 236 237 239 240 240 240 242 246 248 250 251 251 253 257 260 266 269 269 277
106 116 314 255 226 280 240 244 193 187 204 207 209 210 214 220 231 234 234 235 236 236 233 228 227 233 225 222 225 232 237 239 241 242 246 248 250 254 252 253 254 250 247 248 251 258 264 264 269
164 278 271 275 339 208 214 232 210 185 219 214 212 216 225 231 236 237 236 236 232 233 230 229 234 231 230 224 226 229 236 244 247 250 250 252 251 250 251 251 243 241 242 247 251 247 250 261 264
239 236 207 177 108 167 222 182 205 215 230 225 224 224 229 234 237 239 235 233 233 234 229 229 238 236 235 230 223 230 235 244 247 245 246 247 250 251 249 249 250 246 247 246 245 244 242 255 257
284 224 219 162 188 144 328 84 242 227 248 237 233 226 231 233 234 241 240 236 231 233 231 233 239 240 239 231 221 220 224 233 240 243 246 249 252 251 248 249 252 251 245 247 248 253 247 249 261
323 81 155 135 137 213 170 245 146 237 236 242 238 234 236 234 232 235 234 235 233 231 226 231 236 240 239 232 229 231 238 243 251 249 249 255 256 258 253 252 254 251 253 258 264 258 254 255 256
151 101 92 98 186 256 7 252 125 196 244 249 237 239 246 233 237 241 245 242 237 231 225 226 232 242 241 240 243 237 236 239 246 246 245 245 247 254 249 246 244 245 248 251 249 274 273 261 255
216 205 153 171 181 30 338 208 295 312 311 278 288 284 294 275 251 251 260 263 267 251 239 231 232 238 242 243 240 245 245 241 241 243 246 245 245 240 239 237 235 238 238 238 260 263 273 267 255
187 230 229 249 224 68 146 210 162 346 336 344 350 28 33 30 351 347 312 259 266 270 256 229 244 248 246 249 254 254 254 247 247 247 246 249 250 247 238 246 239 233 244 238 240 255 256 265 253
161 195 31 104 50 254 199 239 255 253 54 33 48 60 51 58 60 63 66 60 50 39 31 13 326 280 269 261 271 271 267 259 252 251 250 253 250 249 252 245 242 246 244 260 244 242 242 243 254
258 132 141 83 168 208 173 279 207 353 357 17 57 67 62 63 64 66 67 64 60 58 58 56 52 49 39 17 317 289 281 274 269 266 261 255 257 260 255 255 263 264 268 257 239 245 241 237 248
140 167 69 105 311 215 186 212 195 293 337 63 64 68 73 74 74 73 73 71 70 67 61 58 56 49 37 31 23 11 351 324 289 277 275 272 271 266 264 265 268 268 264 256 238 242 246 239 238
85 149 170 209 177 67 304 165 350 0 117 111 90 74 72 76 81 80 76 73 70 69 64 58 53 48 43 35 24 14 1 329 319 303 293 290 287 286 278 273 265 260 255 255 257 247 248 240 239
Height
766 767 768 767 781 779 787 785 772 779 781 770 772 777 783 784 790 805 795 799 801 808 814 817 818 821 824 826 828 829 832 834 835 836 838 839 840 842 843 844 845 846 847 847 847 848 849 849 850
766 768 768 768 782 788 790 774 779 775 772 768 773 777 782 791 788 794 798 800 803 807 814 817 818 822 825 827 829 831 833 835 837 838 840 840 841 842 844 845 846 846 847 848 848 849 850 850 850
767 768 769 775 783 788 787 773 773 772 769 771 778 776 782 790 790 793 796 800 804 809 815 817 818 823 826 829 830 834 836 837 838 839 841 842 843 844 845 846 848 848 848 849 849 849 850 850 850
769 770 773 779 781 774 771 767 768 774 771 769 773 785 785 789 790 794 798 802 806 811 815 818 820 825 828 830 833 835 837 839 840 841 841 842 844 845 846 847 848 848 849 848 848 848 849 849 850
770 770 779 781 778 769 765 763 765 774 773 774 773 789 793 793 793 797 800 804 807 813 816 820 824 826 829 831 834 836 838 840 841 842 843 844 844 845 846 847 848 849 849 849 849 849 849 849 849
771 773 784 786 779 769 766 763 767 771 774 777 781 786 793 797 797 800 803 807 811 814 819 823 826 827 829 833 835 837 839 840 841 843 844 844 845 845 846 846 847 848 849 849 849 849 849 849 849
773 778 783 780 777 775 770 762 768 772 776 778 775 787 795 797 799 801 805 809 812 816 820 824 827 829 831 834 836 838 839 840 841 842 843 844 844 845 846 847 847 847 848 848 849 849 849 849 849
768 771 779 776 781 779 763 763 762 767 776 771 773 784 793 794 799 803 808 812 815 819 822 824 827 830 833 835 836 838 840 841 841 842 843 844 845 845 845 845 846 846 846 847 849 848 849 850 850
765 776 786 782 779 774 761 767 762 763 770 771 774 776 779 792 799 804 809 814 817 820 822 824 827 829 831 834 836 837 839 840 841 842 842 843 844 845 845 845 845 845 845 846 848 848 847 849 849
770 778 781 768 766 767 761 763 765 770 774 778 781 782 786 792 798 802 806 809 813 816 820 823 826 828 831 833 835 837 838 839 840 841 842 842 843 843 843 843 843 844 844 846 847 847 847 847 848
771 779 771 766 761 759 758 763 765 770 778 770 778 784 788 793 798 800 803 804 808 814 817 820 823 826 829 831 833 835 836 838 839 839 840 841 841 842 842 842 842 843 843 844 845 846 846 846 847
773 768 766 763 757 757 760 759 770 769 768 763 772 779 786 792 795 799 803 806 809 812 816 818 821 823 826 828 830 832 834 835 836 837 839 840 840 841 840 841 841 841 842 842 842 843 843 844 844
773 765 763 757 756 752 753 765 769 775 770 770 777 784 787 791 795 799 801 806 809 811 814 817 819 821 824 826 828 829 831 833 834 835 836 837 838 839 839 839 840 841 841 841 841 841 841 841 843
768 765 761 756 756 755 761 767 765 777 773 776 781 784 787 791 794 799 803 805 807 809 811 814 816 818 821 823 824 826 828 829 831 832 833 834 835 837 838 839 839 839 840 841 840 840 839 839 839
766 769 759 757 757 762 756 773 775 773 775 779 782 786 789 791 794 796 798 801 802 805 809 811 813 815 816 818 820 822 824 826 827 828 829 830 832 833 835 837 838 838 838 838 839 838 837 837 836
773 773 783 764 758 762 759 787 775 772 776 781 783 785 788 790 791 793 796 797 800 802 803 807 808 810 811 813 816 818 820 821 822 824 826 826 828 830 832 834 835 836 836 837 837 836 834 835 834
779 791 787 777 760 763 766 781 771 772 775 780 783 784 785 787 790 791 793 794 797 798 800 801 804 805 806 807 810 812 814 816 819 820 822 824 825 827 828 830 831 832 833 834 834 833 834 833 832
792 788 786 785 770 765 773 772 769 772 775 776 778 781 783 784 783 785 788 790 792 794 795 796 798 800 802 805 808 811 814 815 815 816 817 819 820 821 824 824 825 828 830 831 831 831 830 829 829
776 782 786 775 763 769 770 771 767 770 773 776 777 778 778 779 777 780 782 784 787 789 790 792 794 794 799 802 806 809 809 811 812 813 814 815 817 819 820 820 822 824 824 824 825 826 827 826 826
777 783 781 771 762 768 771 772 764 767 766 766 771 773 773 772 773 774 777 779 780 780 783 786 786 789 793 798 800 803 806 807 809 810 809 809 810 811 811 812 814 815 816 816 818 819 820 821 822
775 781 779 775 770 767 772 774 771 761 761 762 763 764 765 765 765 765 769 770 772 774 777 779 780 783 787 791 797 799 801 802 802 800 799 798 800 802 804 805 806 807 807 809 810 812 814 814 813
781 760 765 773 780 788 775 796 777 763 764 762 759 759 757 757 758 758 759 761 765 767 771 773 775 778 781 786 789 790 791 793 791 792 792 791 792 794 795 797 798 799 801 802 804 806 806 807 807
767 755 764 770 779 783 786 787 769 771 768 758 749 747 746 746 748 748 748 753 757 762 764 766 769 772 774 777 781 785 786 785 785 786 786 786 786 787 788 789 790 792 795 795 799 797 797 801 801
754 764 768 773 775 797 794 786 774 770 762 750 742 741 739 740 743 742 744 749 751 755 759 763 764 766 772 774 775 776 777 778 780 779 779 777 778 780 780 780 780 780 781 782 780 790 795 794 794
758 767 792 798 797 799 791 794 770 758 754 752 746 740 739 739 740 741 745 750 753 755 758 761 762 763 764 766 766 766 767 770 771 771 770 770 770 769 767 769 771 770 768 768 773 766 783 791 788
759 757 780 812 803 794 795 793 770 757 753 747 746 747 746 742 739 742 744 746 747 749 753 758 758 760 762 762 762 762 763 765 764 764 763 763 763 764 763 762 762 759 757 760 757 756 765 782 781
762 768 761 785 804 797 789 775 759 753 754 754 751 748 750 748 747 747 747 749 749 751 754 756 760 761 762 762 760 759 759 758 758 757 758 759 758 757 757 757 756 753 752 751 749 752 760 768 771
747 755 774 779 812 811 795 794 773 763 762 762 758 757 757 754 755 754 754 754 756 758 759 759 760 761 761 761 760 759 757 756 755 756 755 755 754 753 752 752 750 747 747 748 744 747 751 747 761
760 762 775 773 786 790 798 781 764 767 768 767 765 762 760 760 761 761 761 762 763 762 762 763 764 764 763 761 760 758 756 754 754 753 752 751 750 749 747 745 744 741 740 739 737 739 741 740 748
742 750 749 767 793 794 787 776 762 765 765 765 767 765 762 761 761 762 762 763 765 765 766 765 765 765 764 762 760 758 756 755 754 752 750 748 744 741 739 736 735 732 731 732 731 731 733 734 737